Time,TemperatureF,DewpointF,PressureIn,WindDirection,WindDirectionDegrees,WindSpeedMPH,WindSpeedGustMPH,Humidity,HourlyPrecipIn,Conditions,Clouds,dailyrainin,SoftwareType,DateUTC
2013-06-11 00:02:00,72.0,26.0,-100.00,SSW,210,13.0,17.0,17,0.00,,,-99.99,,2013-06-11 06:02:00,
2013-06-11 00:12:00,72.0,26.0,-100.00,SSW,212,12.0,16.0,17,0.00,,,-99.99,,2013-06-11 06:12:00,
2013-06-11 00:22:00,72.0,25.0,-100.00,SSW,212,14.0,18.0,17,0.00,,,-99.99,,2013-06-11 06:22:00,
2013-06-11 00:32:00,72.0,25.0,-100.00,SW,215,14.0,18.0,17,0.00,,,-99.99,,2013-06-11 06:32:00,
2013-06-11 00:42:00,71.0,25.0,-100.00,SSW,213,14.0,19.0,18,0.00,,,-99.99,,2013-06-11 06:42:00,
2013-06-11 00:52:00,71.0,24.0,-100.00,SW,215,14.0,19.0,17,0.00,,,-99.99,,2013-06-11 06:52:00,
2013-06-11 01:02:00,71.0,24.0,-100.00,SW,215,14.0,18.0,17,0.00,,,-99.99,,2013-06-11 07:02:00,
2013-06-11 01:12:00,70.0,24.0,-100.00,SW,216,14.0,17.0,18,0.00,,,-99.99,,2013-06-11 07:12:00,
2013-06-11 01:22:00,70.0,24.0,-100.00,SW,216,14.0,19.0,17,0.00,,,-99.99,,2013-06-11 07:22:00,
2013-06-11 01:32:00,70.0,23.0,-100.00,SW,215,14.0,17.0,17,0.00,,,-99.99,,2013-06-11 07:32:00,
2013-06-11 01:42:00,70.0,22.0,-100.00,SSW,213,14.0,17.0,16,0.00,,,-99.99,,2013-06-11 07:42:00,
2013-06-11 01:52:00,70.0,21.0,-100.00,SSW,210,14.0,19.0,15,0.00,,,-99.99,,2013-06-11 07:52:00,
2013-06-11 02:02:00,70.0,20.0,-100.00,SSW,210,15.0,17.0,15,0.00,,,-99.99,,2013-06-11 08:02:00,
2013-06-11 02:12:00,70.0,20.0,-100.00,SSW,210,14.0,18.0,15,0.00,,,-99.99,,2013-06-11 08:12:00,
2013-06-11 02:22:00,70.0,19.0,-100.00,SSW,210,14.0,17.0,15,0.00,,,-99.99,,2013-06-11 08:22:00,
2013-06-11 02:32:00,70.0,19.0,-100.00,SSW,209,13.0,19.0,15,0.00,,,-99.99,,2013-06-11 08:32:00,
2013-06-11 02:42:00,70.0,19.0,-100.00,SSW,209,14.0,17.0,15,0.00,,,-99.99,,2013-06-11 08:42:00,
2013-06-11 02:52:00,69.0,19.0,-100.00,SSW,213,14.0,19.0,15,0.00,,,-99.99,,2013-06-11 08:52:00,
2013-06-11 03:02:00,70.0,20.0,-100.00,SSW,210,13.0,18.0,15,0.00,,,-99.99,,2013-06-11 09:02:00,
2013-06-11 03:12:00,69.0,20.0,-100.00,SSW,210,13.0,18.0,15,0.00,,,-99.99,,2013-06-11 09:12:00,
2013-06-11 03:22:00,69.0,20.0,-100.00,SSW,205,12.0,16.0,15,0.00,,,-99.99,,2013-06-11 09:22:00,
2013-06-11 03:33:00,69.0,20.0,-100.00,SSW,208,13.0,17.0,15,0.00,,,-99.99,,2013-06-11 09:33:00,
2013-06-11 03:43:00,69.0,19.0,-100.00,SSW,212,14.0,21.0,15,0.00,,,-99.99,,2013-06-11 09:43:00,
2013-06-11 03:53:00,69.0,18.0,-100.00,SW,217,14.0,19.0,14,0.00,,,-99.99,,2013-06-11 09:53:00,
2013-06-11 04:03:00,69.0,17.0,-100.00,SW,222,12.0,16.0,13,0.00,,,-99.99,,2013-06-11 10:03:00,
2013-06-11 04:12:00,69.0,17.0,-100.00,SW,215,15.0,19.0,14,0.00,,,-99.99,,2013-06-11 10:12:00,
2013-06-11 04:22:00,69.0,18.0,-100.00,SSW,212,14.0,19.0,14,0.00,,,-99.99,,2013-06-11 10:22:00,
2013-06-11 04:33:00,68.0,17.0,-100.00,SSW,210,12.0,17.0,14,0.00,,,-99.99,,2013-06-11 10:33:00,
2013-06-11 04:42:00,68.0,17.0,-100.00,SSW,212,13.0,18.0,14,0.00,,,-99.99,,2013-06-11 10:42:00,
2013-06-11 04:52:00,68.0,17.0,-100.00,SSW,210,14.0,18.0,14,0.00,,,-99.99,,2013-06-11 10:52:00,
2013-06-11 05:02:00,68.0,16.0,-100.00,SSW,212,12.0,16.0,13,0.00,,,-99.99,,2013-06-11 11:02:00,
2013-06-11 05:12:00,68.0,16.0,-100.00,SSW,212,12.0,17.0,13,0.00,,,-99.99,,2013-06-11 11:12:00,
2013-06-11 05:22:00,68.0,16.0,-100.00,SSW,212,13.0,16.0,13,0.00,,,-99.99,,2013-06-11 11:22:00,
2013-06-11 05:32:00,68.0,16.0,-100.00,SSW,210,13.0,16.0,14,0.00,,,-99.99,,2013-06-11 11:32:00,
2013-06-11 05:41:00,67.0,17.0,-100.00,SSW,212,12.0,16.0,14,0.00,,,-99.99,,2013-06-11 11:41:00,
2013-06-11 05:52:00,68.0,17.0,-100.00,SW,217,14.0,17.0,14,0.00,,,-99.99,,2013-06-11 11:52:00,
2013-06-11 06:02:00,68.0,16.0,-100.00,SW,217,13.0,16.0,14,0.00,,,-99.99,,2013-06-11 12:02:00,
2013-06-11 06:12:00,68.0,17.0,-100.00,SW,217,13.0,17.0,14,0.00,,,-99.99,,2013-06-11 12:12:00,
2013-06-11 06:22:00,68.0,16.0,-100.00,SW,219,14.0,20.0,13,0.00,,,-99.99,,2013-06-11 12:22:00,
2013-06-11 06:32:00,69.0,16.0,-100.00,SW,220,14.0,19.0,13,0.00,,,-99.99,,2013-06-11 12:32:00,
2013-06-11 06:42:00,69.0,17.0,-100.00,SW,223,13.0,21.0,13,0.00,,,-99.99,,2013-06-11 12:42:00,
2013-06-11 06:52:00,69.0,18.0,-100.00,SW,217,12.0,19.0,14,0.00,,,-99.99,,2013-06-11 12:52:00,
2013-06-11 07:02:00,70.0,20.0,-100.00,SW,220,16.0,24.0,15,0.00,,,-99.99,,2013-06-11 13:02:00,
2013-06-11 07:12:00,70.0,19.0,-100.00,SW,220,17.0,27.0,14,0.00,,,-99.99,,2013-06-11 13:12:00,
2013-06-11 07:22:00,70.0,19.0,-100.00,SW,224,17.0,26.0,14,0.00,,,-99.99,,2013-06-11 13:22:00,
2013-06-11 07:32:00,71.0,18.0,-100.00,SW,230,20.0,27.0,14,0.00,,,-99.99,,2013-06-11 13:32:00,
2013-06-11 07:42:00,71.0,18.0,-100.00,SW,229,21.0,28.0,13,0.00,,,-99.99,,2013-06-11 13:42:00,
2013-06-11 07:52:00,71.0,18.0,-100.00,SW,232,19.0,27.0,13,0.00,,,-99.99,,2013-06-11 13:52:00,
2013-06-11 08:02:00,71.0,18.0,-100.00,SW,232,19.0,28.0,13,0.00,,,-99.99,,2013-06-11 14:02:00,
2013-06-11 08:12:00,71.0,16.0,-100.00,SW,233,17.0,28.0,12,0.00,,,-99.99,,2013-06-11 14:12:00,
2013-06-11 08:22:00,71.0,16.0,-100.00,SW,236,21.0,32.0,12,0.00,,,-99.99,,2013-06-11 14:22:00,
2013-06-11 08:32:00,72.0,16.0,-100.00,SW,236,17.0,26.0,12,0.00,,,-99.99,,2013-06-11 14:32:00,
2013-06-11 08:42:00,72.0,17.0,-100.00,SW,232,17.0,26.0,12,0.00,,,-99.99,,2013-06-11 14:42:00,
2013-06-11 08:52:00,72.0,17.0,-100.00,WSW,239,16.0,26.0,12,0.00,,,-99.99,,2013-06-11 14:52:00,
2013-06-11 09:02:00,72.0,17.0,-100.00,WSW,237,17.0,27.0,12,0.00,,,-99.99,,2013-06-11 15:02:00,
2013-06-11 09:12:00,72.0,18.0,-100.00,WSW,239,18.0,27.0,13,0.00,,,-99.99,,2013-06-11 15:12:00,
2013-06-11 09:22:00,72.0,18.0,-100.00,WSW,239,19.0,32.0,13,0.00,,,-99.99,,2013-06-11 15:22:00,
2013-06-11 09:33:00,72.0,19.0,-100.00,WSW,250,17.0,29.0,13,0.00,,,-99.99,,2013-06-11 15:33:00,
2013-06-11 09:42:00,72.0,19.0,-100.00,WSW,239,21.0,33.0,13,0.00,,,-99.99,,2013-06-11 15:42:00,
2013-06-11 09:53:00,72.0,19.0,-100.00,WSW,240,21.0,29.0,13,0.00,,,-99.99,,2013-06-11 15:53:00,
2013-06-11 10:03:00,73.0,19.0,-100.00,WSW,253,18.0,28.0,13,0.00,,,-99.99,,2013-06-11 16:03:00,
2013-06-11 10:12:00,73.0,19.0,-100.00,WSW,248,21.0,30.0,13,0.00,,,-99.99,,2013-06-11 16:12:00,
2013-06-11 10:22:00,73.0,18.0,-100.00,WSW,237,22.0,30.0,13,0.00,,,-99.99,,2013-06-11 16:22:00,
2013-06-11 10:32:00,74.0,19.0,-100.00,WSW,251,19.0,32.0,13,0.00,,,-99.99,,2013-06-11 16:32:00,
2013-06-11 10:42:00,74.0,21.0,-100.00,WSW,258,19.0,29.0,13,0.00,,,-99.99,,2013-06-11 16:42:00,
2013-06-11 10:52:00,74.0,17.0,-100.00,WSW,243,18.0,28.0,12,0.00,,,-99.99,,2013-06-11 16:52:00,
2013-06-11 11:02:00,73.0,20.0,-100.00,WSW,246,20.0,31.0,13,0.00,,,-99.99,,2013-06-11 17:02:00,
2013-06-11 11:12:00,74.0,18.0,-100.00,WSW,246,19.0,26.0,12,0.00,,,-99.99,,2013-06-11 17:12:00,
2013-06-11 11:22:00,74.0,17.0,-100.00,WSW,246,20.0,34.0,11,0.00,,,-99.99,,2013-06-11 17:22:00,
2013-06-11 11:32:00,73.0,19.0,-100.00,SW,234,20.0,29.0,12,0.00,,,-99.99,,2013-06-11 17:32:00,
2013-06-11 11:43:00,74.0,19.0,-100.00,SW,236,17.0,27.0,12,0.00,,,-99.99,,2013-06-11 17:43:00,
2013-06-11 11:52:00,74.0,20.0,-100.00,WSW,240,15.0,29.0,13,0.00,,,-99.99,,2013-06-11 17:52:00,
2013-06-11 12:02:00,73.0,20.0,-100.00,WSW,257,17.0,26.0,13,0.00,,,-99.99,,2013-06-11 18:02:00,
2013-06-11 12:12:00,75.0,22.0,-100.00,West,268,16.0,26.0,13,0.00,,,-99.99,,2013-06-11 18:12:00,
2013-06-11 12:22:00,75.0,22.0,-100.00,West,271,15.0,26.0,14,0.00,,,-99.99,,2013-06-11 18:22:00,
2013-06-11 12:32:00,75.0,20.0,-100.00,WSW,256,17.0,26.0,12,0.00,,,-99.99,,2013-06-11 18:32:00,
2013-06-11 12:42:00,74.0,19.0,-100.00,WSW,243,21.0,30.0,12,0.00,,,-99.99,,2013-06-11 18:42:00,
2013-06-11 12:52:00,74.0,19.0,-100.00,WSW,239,15.0,27.0,12,0.00,,,-99.99,,2013-06-11 18:52:00,
2013-06-11 13:02:00,75.0,19.0,-100.00,WSW,240,17.0,33.0,12,0.00,,,-99.99,,2013-06-11 19:02:00,
2013-06-11 13:12:00,74.0,18.0,-100.00,WSW,243,17.0,27.0,12,0.00,,,-99.99,,2013-06-11 19:12:00,
2013-06-11 13:22:00,75.0,19.0,-100.00,WSW,247,19.0,28.0,12,0.00,,,-99.99,,2013-06-11 19:22:00,
2013-06-11 13:32:00,76.0,20.0,-100.00,WSW,244,19.0,28.0,12,0.00,,,-99.99,,2013-06-11 19:32:00,
2013-06-11 13:42:00,76.0,19.0,-100.00,WSW,240,17.0,27.0,12,0.00,,,-99.99,,2013-06-11 19:42:00,
2013-06-11 13:52:00,76.0,19.0,-100.00,WSW,243,17.0,26.0,12,0.00,,,-99.99,,2013-06-11 19:52:00,
2013-06-11 14:02:00,76.0,20.0,-100.00,WSW,254,16.0,28.0,12,0.00,,,-99.99,,2013-06-11 20:02:00,
2013-06-11 14:12:00,76.0,21.0,-100.00,WSW,257,19.0,39.0,13,0.00,,,-99.99,,2013-06-11 20:12:00,
2013-06-11 14:22:00,77.0,20.0,-100.00,WSW,237,17.0,27.0,12,0.00,,,-99.99,,2013-06-11 20:22:00,
2013-06-11 14:32:00,76.0,19.0,-100.00,WSW,246,21.0,30.0,12,0.00,,,-99.99,,2013-06-11 20:32:00,
2013-06-11 14:42:00,76.0,20.0,-100.00,WSW,251,21.0,32.0,12,0.00,,,-99.99,,2013-06-11 20:42:00,
2013-06-11 14:52:00,76.0,21.0,-100.00,WSW,253,19.0,34.0,12,0.00,,,-99.99,,2013-06-11 20:52:00,
2013-06-11 15:02:00,76.0,21.0,-100.00,WSW,244,21.0,34.0,13,0.00,,,-99.99,,2013-06-11 21:02:00,
2013-06-11 15:12:00,76.0,21.0,-100.00,WSW,246,19.0,29.0,12,0.00,,,-99.99,,2013-06-11 21:12:00,
2013-06-11 15:22:00,76.0,20.0,-100.00,WSW,241,21.0,34.0,12,0.00,,,-99.99,,2013-06-11 21:22:00,
2013-06-11 15:33:00,76.0,21.0,-100.00,WSW,239,22.0,31.0,13,0.00,,,-99.99,,2013-06-11 21:33:00,
2013-06-11 15:42:00,76.0,21.0,-100.00,WSW,243,21.0,34.0,13,0.00,,,-99.99,,2013-06-11 21:42:00,
2013-06-11 15:52:00,77.0,21.0,-100.00,WSW,258,20.0,32.0,12,0.00,,,-99.99,,2013-06-11 21:52:00,
2013-06-11 16:03:00,75.0,21.0,-100.00,SW,229,20.0,31.0,13,0.00,,,-99.99,,2013-06-11 22:03:00,
2013-06-11 16:12:00,76.0,21.0,-100.00,SW,234,19.0,30.0,13,0.00,,,-99.99,,2013-06-11 22:12:00,
2013-06-11 16:22:00,76.0,21.0,-100.00,SW,234,21.0,37.0,13,0.00,,,-99.99,,2013-06-11 22:22:00,
2013-06-11 16:32:00,76.0,22.0,-100.00,West,263,19.0,29.0,13,0.00,,,-99.99,,2013-06-11 22:32:00,
2013-06-11 16:42:00,76.0,20.0,-100.00,WSW,254,22.0,34.0,12,0.00,,,-99.99,,2013-06-11 22:42:00,
2013-06-11 16:52:00,75.0,20.0,-100.00,WSW,248,21.0,31.0,13,0.00,,,-99.99,,2013-06-11 22:52:00,
2013-06-11 17:02:00,76.0,21.0,-100.00,WSW,244,20.0,32.0,13,0.00,,,-99.99,,2013-06-11 23:02:00,
2013-06-11 17:12:00,74.0,20.0,-100.00,WSW,250,21.0,35.0,13,0.00,,,-99.99,,2013-06-11 23:12:00,
2013-06-11 17:22:00,75.0,20.0,-100.00,WSW,258,18.0,32.0,13,0.00,,,-99.99,,2013-06-11 23:22:00,
2013-06-11 17:32:00,74.0,20.0,-100.00,WSW,250,21.0,32.0,13,0.00,,,-99.99,,2013-06-11 23:32:00,
2013-06-11 17:42:00,74.0,20.0,-100.00,WSW,248,19.0,33.0,13,0.00,,,-99.99,,2013-06-11 23:42:00,
2013-06-11 17:52:00,74.0,22.0,-100.00,West,263,18.0,32.0,14,0.00,,,-99.99,,2013-06-11 23:52:00,
2013-06-11 18:02:00,73.0,21.0,-100.00,West,260,20.0,32.0,14,0.00,,,-99.99,,2013-06-12 00:02:00,
2013-06-11 18:12:00,73.0,21.0,-100.00,West,271,17.0,25.0,14,0.00,,,-99.99,,2013-06-12 00:12:00,
2013-06-11 18:22:00,72.0,21.0,-100.00,West,281,21.0,32.0,14,0.00,,,-99.99,,2013-06-12 00:22:00,
2013-06-11 18:32:00,72.0,21.0,-100.00,West,271,20.0,28.0,14,0.00,,,-99.99,,2013-06-12 00:32:00,
2013-06-11 18:42:00,72.0,20.0,-100.00,West,274,20.0,30.0,14,0.00,,,-99.99,,2013-06-12 00:42:00,
2013-06-11 18:52:00,72.0,19.0,-100.00,West,275,24.0,39.0,14,0.00,,,-99.99,,2013-06-12 00:52:00,
2013-06-11 19:02:00,71.0,20.0,-100.00,West,277,18.0,30.0,14,0.00,,,-99.99,,2013-06-12 01:02:00,
2013-06-11 19:12:00,71.0,20.0,-100.00,WNW,282,19.0,34.0,14,0.00,,,-99.99,,2013-06-12 01:12:00,
2013-06-11 19:22:00,71.0,19.0,-100.00,WNW,282,19.0,28.0,14,0.00,,,-99.99,,2013-06-12 01:22:00,
2013-06-11 19:32:00,71.0,18.0,-100.00,West,281,21.0,34.0,14,0.00,,,-99.99,,2013-06-12 01:32:00,
2013-06-11 19:42:00,70.0,18.0,-100.00,West,278,23.0,33.0,14,0.00,,,-99.99,,2013-06-12 01:42:00,
2013-06-11 19:52:00,70.0,18.0,-100.00,West,280,21.0,32.0,14,0.00,,,-99.99,,2013-06-12 01:52:00,
2013-06-11 20:02:00,69.0,18.0,-100.00,West,280,19.0,27.0,14,0.00,,,-99.99,,2013-06-12 02:02:00,
2013-06-11 20:12:00,69.0,18.0,-100.00,West,278,20.0,28.0,14,0.00,,,-99.99,,2013-06-12 02:12:00,
2013-06-11 20:22:00,69.0,16.0,-100.00,West,275,17.0,29.0,13,0.00,,,-99.99,,2013-06-12 02:22:00,
2013-06-11 20:32:00,68.0,16.0,-100.00,West,270,18.0,29.0,13,0.00,,,-99.99,,2013-06-12 02:32:00,
2013-06-11 20:42:00,68.0,16.0,-100.00,West,271,19.0,34.0,13,0.00,,,-99.99,,2013-06-12 02:42:00,
2013-06-11 20:52:00,67.0,16.0,-100.00,West,274,21.0,31.0,14,0.00,,,-99.99,,2013-06-12 02:52:00,
2013-06-11 21:02:00,66.0,16.0,-100.00,West,275,19.0,30.0,14,0.00,,,-99.99,,2013-06-12 03:02:00,
2013-06-11 21:12:00,66.0,16.0,-100.00,West,275,17.0,29.0,14,0.00,,,-99.99,,2013-06-12 03:12:00,
2013-06-11 21:22:00,65.0,15.0,-100.00,West,280,17.0,27.0,14,0.00,,,-99.99,,2013-06-12 03:22:00,
2013-06-11 21:32:00,65.0,15.0,-100.00,West,278,17.0,24.0,14,0.00,,,-99.99,,2013-06-12 03:32:00,
2013-06-11 21:42:00,64.0,15.0,-100.00,West,278,16.0,23.0,15,0.00,,,-99.99,,2013-06-12 03:42:00,
2013-06-11 21:53:00,64.0,15.0,-100.00,West,277,15.0,22.0,15,0.00,,,-99.99,,2013-06-12 03:53:00,
2013-06-11 22:03:00,64.0,16.0,-100.00,West,271,17.0,27.0,15,0.00,,,-99.99,,2013-06-12 04:03:00,
2013-06-11 22:13:00,64.0,16.0,-100.00,West,272,18.0,27.0,15,0.00,,,-99.99,,2013-06-12 04:13:00,
2013-06-11 22:23:00,64.0,17.0,-100.00,West,270,18.0,27.0,16,0.00,,,-99.99,,2013-06-12 04:23:00,
2013-06-11 22:33:00,64.0,18.0,-100.00,West,272,19.0,29.0,17,0.00,,,-99.99,,2013-06-12 04:33:00,
2013-06-11 22:42:00,64.0,18.0,-100.00,West,274,19.0,26.0,17,0.00,,,-99.99,,2013-06-12 04:42:00,
2013-06-11 22:52:00,64.0,19.0,-100.00,West,275,18.0,28.0,17,0.00,,,-99.99,,2013-06-12 04:52:00,
2013-06-11 23:03:00,64.0,19.0,-100.00,West,275,19.0,26.0,18,0.00,,,-99.99,,2013-06-12 05:03:00,
2013-06-11 23:12:00,63.0,20.0,-100.00,West,278,17.0,26.0,18,0.00,,,-99.99,,2013-06-12 05:12:00,
2013-06-11 23:22:00,63.0,20.0,-100.00,West,277,17.0,26.0,19,0.00,,,-99.99,,2013-06-12 05:22:00,
2013-06-11 23:32:00,63.0,20.0,-100.00,West,274,16.0,24.0,19,0.00,,,-99.99,,2013-06-12 05:32:00,
2013-06-11 23:42:00,62.0,21.0,-100.00,West,270,18.0,24.0,20,0.00,,,-99.99,,2013-06-12 05:42:00,
2013-06-11 23:52:00,62.0,22.0,-100.00,West,268,17.0,25.0,21,0.00,,,-99.99,,2013-06-12 05:52:00,